Location: Roanoke
(37.2710°N, 79.9420°W)
Time: 03:04:32
(UTC-05:00)

S-56A Canister/Altair - Pass Details

Date: 23 November 2019
Orbit: 633 x 2499 km, 38.9° (Epoch: 06 December)

Event Time Altitude Azimuth Distance (km) Brightness Sun altitude
Rises 11:54:01 0° 181° (S) 6,160 13.3 32.3°
Reaches altitude 10° 12:01:24 10° 159° (SSE) 5,038 12.9 32.3°
Maximum altitude 12:07:10 14° 135° (SE) 4,546 12.2 32.3°
Drops below altitude 10° 12:12:28 10° 110° (ESE) 4,579 11.8 32.3°
Sets 12:18:21 0° 87° (E) 5,200 11.7 32.3°
